Location: Gloden
(48.4833°N, 15.3167°E)
Time: 12:51:06
(UTC+00:00)

Cosmos 1992 Rocket - Pass Details

Date: 15 December 2019
Orbit: 758 x 766 km, 74.0° (Epoch: 18 January)

Event Time Altitude Azimuth Distance (km) Brightness Sun altitude
Rises 05:54:05 0° 202° (SSW) 3,203 7.3 -7.9°
Reaches altitude 10° 05:56:26 10° 203° (SSW) 2,283 6.5 -7.5°
Maximum altitude 06:01:37 87° 291° (WNW) 767 4.0 -6.8°
Drops below altitude 10° 06:06:52 10° 22° (NNE) 2,302 6.4 -6.0°
Sets 06:09:15 0° 23° (NNE) 3,233 7.2 -5.6°
